| time (UTC) | temp C | wind direction | speed KPH | gust KPH | rain 1hr cm | rain 24hr cm | rain mn cm | humidity % | barometer mb |
| 20260507180021 | 19 | 158 | 14.5 | 30.6 | 0.00 | 0.00 | 0.00 | 42 | 1015.2 |
| 20260507175021 | 18 | 158 | 14.5 | 29.0 | 0.00 | 0.00 | 0.00 | 44 | 1015.4 |
| 20260507174021 | 18 | 158 | 16.1 | 33.8 | 0.00 | 0.00 | 0.00 | 42 | 1015.6 |
| 20260507173021 | 18 | 158 | 17.7 | 29.0 | 0.00 | 0.00 | 0.00 | 44 | 1015.6 |
| 20260507172021 | 18 | 158 | 17.7 | 29.0 | 0.00 | 0.00 | 0.00 | 46 | 1015.8 |
| 20260507171021 | 17 | 158 | 14.5 | 27.4 | 0.00 | 0.00 | 0.00 | 47 | 1016.0 |
| 20260507170021 | 17 | 158 | 16.1 | 29.0 | 0.00 | 0.00 | 0.00 | 47 | 1016.3 |
| 20260507165021 | 17 | 158 | 14.5 | 22.5 | 0.00 | 0.00 | 0.00 | 49 | 1016.3 |
| 20260507164021 | 16 | 180 | 16.1 | 27.4 | 0.00 | 0.00 | 0.00 | 50 | 1016.6 |
| 20260507163021 | 16 | 158 | 16.1 | 29.0 | 0.00 | 0.00 | 0.00 | 52 | 1016.7 |
| 20260507162021 | 16 | 158 | 17.7 | 27.4 | 0.00 | 0.00 | 0.00 | 55 | 1016.8 |
| 20260507161021 | 15 | 180 | 16.1 | 27.4 | 0.00 | 0.00 | 0.00 | 56 | 1016.9 |
| 20260507160021 | 15 | 158 | 16.1 | 27.4 | 0.00 | 0.00 | 0.00 | 57 | 1016.8 |
| 20260507155021 | 15 | 180 | 17.7 | 29.0 | 0.00 | 0.00 | 0.00 | 57 | 1016.9 |
| 20260507154021 | 15 | 158 | 19.3 | 29.0 | 0.00 | 0.00 | 0.00 | 58 | 1016.9 |
| 20260507153021 | 14 | 180 | 17.7 | 30.6 | 0.00 | 0.00 | 0.00 | 59 | 1017.0 |
| 20260507152021 | 13 | 180 | 14.5 | 24.1 | 0.00 | 0.00 | 0.00 | 62 | 1017.0 |
| 20260507151021 | 13 | 180 | 12.9 | 25.7 | 0.00 | 0.00 | 0.00 | 64 | 1017.4 |
| 20260507150020 | 13 | 158 | 17.7 | 29.0 | 0.00 | 0.00 | 0.00 | 65 | 1017.5 |
| 20260507145021 | 13 | 158 | 16.1 | 29.0 | 0.00 | 0.00 | 0.00 | 65 | 1017.4 |
| 20260507144021 | 12 | 180 | 9.7 | 20.9 | 0.00 | 0.00 | 0.00 | 68 | 1017.6 |
| 20260507143021 | 12 | 180 | 11.3 | 29.0 | 0.00 | 0.00 | 0.00 | 70 | 1017.6 |
| 20260507142020 | 11 | 180 | 14.5 | 25.7 | 0.00 | 0.00 | 0.00 | 72 | 1017.7 |
| 20260507141021 | 11 | 158 | 12.9 | 19.3 | 0.00 | 0.00 | 0.00 | 73 | 1017.8 |
| 20260507140020 | 11 | 180 | 9.7 | 20.9 | 0.00 | 0.00 | 0.00 | 77 | 1018.1 |
| 20260507135020 | 10 | 180 | 12.9 | 24.1 | 0.00 | 0.00 | 0.00 | 78 | 1018.0 |
| 20260507134020 | 10 | 180 | 8.0 | 17.7 | 0.00 | 0.00 | 0.00 | 80 | 1018.2 |
| 20260507133020 | 9 | 180 | 9.7 | 19.3 | 0.00 | 0.00 | 0.00 | 82 | 1018.1 |
| 20260507132020 | 8 | 180 | 9.7 | 16.1 | 0.00 | 0.00 | 0.00 | 85 | 1018.1 |
| 20260507131020 | 8 | 180 | 8.0 | 14.5 | 0.00 | 0.00 | 0.00 | 86 | 1018.1 |
| 20260507130020 | 7 | 180 | 8.0 | 14.5 | 0.00 | 0.00 | 0.00 | 87 | 1018.2 |
| 20260507125020 | 7 | 158 | 8.0 | 12.9 | 0.00 | 0.00 | 0.00 | 89 | 1017.9 |
| 20260507124020 | 6 | 158 | 6.4 | 11.3 | 0.00 | 0.00 | 0.00 | 90 | 1018.0 |
| 20260507123020 | 6 | 158 | 6.4 | 11.3 | 0.00 | 0.00 | 0.00 | 90 | 1018.0 |
| 20260507122020 | 6 | 158 | 4.8 | 8.0 | 0.00 | 0.00 | 0.00 | 90 | 1018.0 |
| 20260507121020 | 5 | 158 | 3.2 | 8.0 | 0.00 | 0.00 | 0.00 | 91 | 1018.0 |
| 20260507120020 | 5 | 180 | 3.2 | 6.4 | 0.00 | 0.00 | 0.00 | 91 | 1018.0 |
| 20260507115020 | 5 | 180 | 1.6 | 4.8 | 0.00 | 0.00 | 0.00 | 92 | 1017.7 |
| 20260507114020 | 4 | 180 | 1.6 | 4.8 | 0.00 | 0.00 | 0.00 | 92 | 1017.6 |
| 20260507113020 | 4 | 180 | 1.6 | 3.2 | 0.00 | 0.00 | 0.00 | 92 | 1017.9 |
| 20260507112020 | 4 | 180 | 1.6 | 1.6 | 0.00 | 0.00 | 0.00 | 92 | 1017.9 |
| 20260507111020 | 4 | 181 | 0.0 | 0.0 | 0.00 | 0.00 | 0.00 | 91 | 1017.8 |
| 20260507110020 | 5 | 181 | 0.0 | 0.0 | 0.00 | 0.00 | 0.00 | 91 | 1017.8 |
| 20260507105020 | 5 | 181 | 0.0 | 0.0 | 0.00 | 0.00 | 0.00 | 91 | 1017.7 |
| 20260507104020 | 5 | 181 | 0.0 | 0.0 | 0.00 | 0.00 | 0.00 | 91 | 1017.8 |
| 20260507103020 | 5 | 181 | 0.0 | 0.0 | 0.00 | 0.00 | 0.00 | 91 | 1017.7 |
| 20260507102020 | 5 | 181 | 0.0 | 0.0 | 0.00 | 0.00 | 0.00 | 90 | 1017.7 |
| 20260507101020 | 5 | 181 | 0.0 | 0.0 | 0.00 | 0.00 | 0.00 | 90 | 1017.8 |
| 20260507100020 | 5 | 181 | 0.0 | 0.0 | 0.00 | 0.00 | 0.00 | 90 | 1017.8 |
| 20260507095020 | 5 | 181 | 0.0 | 0.0 | 0.00 | 0.00 | 0.00 | 89 | 1017.9 |
| 20260507094020 | 5 | 181 | 0.0 | 0.0 | 0.00 | 0.00 | 0.00 | 89 | 1018.0 |
| 20260507093020 | 5 | 181 | 0.0 | 0.0 | 0.00 | 0.00 | 0.00 | 89 | 1018.0 |
| 20260507092020 | 6 | 181 | 0.0 | 0.0 | 0.00 | 0.00 | 0.00 | 89 | 1018.3 |
| 20260507091020 | 6 | 181 | 0.0 | 0.0 | 0.00 | 0.00 | 0.00 | 89 | 1018.5 |
| 20260507090020 | 6 | 181 | 0.0 | 0.0 | 0.00 | 0.00 | 0.00 | 89 | 1018.6 |
| 20260507085020 | 6 | 194 | 0.0 | 0.0 | 0.00 | 0.00 | 0.00 | 88 | 1018.6 |
| 20260507084020 | 6 | 171 | 0.0 | 0.0 | 0.00 | 0.00 | 0.00 | 88 | 1018.7 |
| 20260507083020 | 6 | 171 | 0.0 | 0.0 | 0.00 | 0.00 | 0.00 | 87 | 1018.6 |
| 20260507082020 | 6 | 171 | 0.0 | 0.0 | 0.00 | 0.00 | 0.00 | 87 | 1018.7 |
| 20260507081022 | 6 | 171 | 0.0 | 0.0 | 0.00 | 0.00 | 0.00 | 87 | 1018.8 |
| 20260507080022 | 6 | 171 | 0.0 | 0.0 | 0.00 | 0.00 | 0.00 | 85 | 1018.8 |
| 20260507075022 | 6 | 171 | 0.0 | 0.0 | 0.00 | 0.00 | 0.00 | 84 | 1018.8 |
| 20260507074022 | 6 | 171 | 0.0 | 0.0 | 0.00 | 0.00 | 0.00 | 85 | 1018.7 |
| 20260507073022 | 6 | 171 | 0.0 | 0.0 | 0.00 | 0.00 | 0.00 | 84 | 1019.0 |
| 20260507072022 | 6 | 171 | 0.0 | 0.0 | 0.00 | 0.00 | 0.00 | 83 | 1019.1 |
| 20260507071022 | 7 | 171 | 0.0 | 0.0 | 0.00 | 0.00 | 0.00 | 82 | 1019.2 |
| 20260507070022 | 7 | 171 | 0.0 | 0.0 | 0.00 | 0.00 | 0.00 | 82 | 1019.4 |
| 20260507065022 | 7 | 171 | 0.0 | 0.0 | 0.00 | 0.00 | 0.00 | 82 | 1019.5 |
| 20260507064022 | 7 | 171 | 0.0 | 0.0 | 0.00 | 0.00 | 0.00 | 82 | 1019.6 |
| 20260507063022 | 7 | 171 | 0.0 | 0.0 | 0.00 | 0.03 | 0.00 | 83 | 1019.5 |
| 20260507062022 | 7 | 281 | 0.0 | 0.0 | 0.00 | 0.05 | 0.00 | 84 | 1019.3 |
| 20260507061022 | 7 | 281 | 0.0 | 0.0 | 0.00 | 0.08 | 0.00 | 85 | 1019.3 |
| 20260507060022 | 7 | 281 | 0.0 | 0.0 | 0.00 | 0.08 | 0.00 | 85 | 1019.4 |
| 20260507055022 | 7 | 281 | 0.0 | 0.0 | 0.00 | 0.10 | 0.00 | 85 | 1019.3 |
| 20260507054022 | 7 | 281 | 0.0 | 0.0 | 0.00 | 0.13 | 0.00 | 87 | 1019.4 |
| 20260507053022 | 7 | 281 | 0.0 | 0.0 | 0.00 | 0.15 | 0.00 | 88 | 1019.3 |
| 20260507052022 | 7 | 281 | 0.0 | 0.0 | 0.00 | 0.15 | 0.00 | 87 | 1019.3 |
| 20260507051022 | 7 | 281 | 0.0 | 0.0 | 0.00 | 0.15 | 0.00 | 87 | 1019.3 |
| 20260507050022 | 7 | 281 | 0.0 | 0.0 | 0.00 | 0.15 | 0.15 | 87 | 1019.2 |
| 20260507045022 | 7 | 281 | 0.0 | 0.0 | 0.00 | 0.15 | 0.15 | 86 | 1019.2 |
| 20260507044022 | 7 | 281 | 0.0 | 0.0 | 0.00 | 0.15 | 0.15 | 85 | 1019.2 |
| 20260507043022 | 7 | 281 | 0.0 | 0.0 | 0.00 | 0.15 | 0.15 | 84 | 1019.0 |
| 20260507042022 | 7 | 281 | 0.0 | 0.0 | 0.00 | 0.15 | 0.15 | 83 | 1018.9 |
| 20260507041021 | 7 | 281 | 0.0 | 0.0 | 0.00 | 0.15 | 0.15 | 81 | 1019.0 |
| 20260507040022 | 7 | 281 | 0.0 | 0.0 | 0.00 | 0.18 | 0.15 | 79 | 1019.0 |
| 20260507035021 | 7 | 281 | 0.0 | 0.0 | 0.00 | 0.20 | 0.15 | 78 | 1019.1 |
| 20260507034021 | 7 | 281 | 0.0 | 0.0 | 0.00 | 0.23 | 0.15 | 79 | 1019.2 |
| 20260507033021 | 7 | 281 | 0.0 | 0.0 | 0.00 | 0.28 | 0.15 | 80 | 1019.1 |
| 20260507032021 | 7 | 281 | 0.0 | 0.0 | 0.00 | 0.30 | 0.15 | 79 | 1019.0 |
| 20260507031022 | 7 | 281 | 0.0 | 0.0 | 0.00 | 0.30 | 0.15 | 77 | 1018.8 |
| 20260507030021 | 7 | 281 | 0.0 | 0.0 | 0.00 | 0.30 | 0.15 | 74 | 1018.8 |
| 20260507025021 | 8 | 281 | 0.0 | 0.0 | 0.00 | 0.30 | 0.15 | 70 | 1018.9 |
| 20260507024021 | 9 | 281 | 0.0 | 0.0 | 0.00 | 0.30 | 0.15 | 67 | 1019.0 |
| 20260507023021 | 9 | 281 | 0.0 | 0.0 | 0.00 | 0.30 | 0.15 | 68 | 1019.0 |
| 20260507022021 | 10 | 281 | 0.0 | 0.0 | 0.00 | 0.30 | 0.15 | 68 | 1018.9 |
| 20260507021021 | 10 | 281 | 0.0 | 0.0 | 0.00 | 0.30 | 0.15 | 63 | 1018.8 |
| 20260507020021 | 11 | 281 | 0.0 | 0.0 | 0.00 | 0.30 | 0.15 | 60 | 1018.8 |
| 20260507015021 | 11 | 281 | 0.0 | 0.0 | 0.00 | 0.30 | 0.15 | 58 | 1018.6 |
| 20260507014021 | 12 | 281 | 0.0 | 0.0 | 0.00 | 0.30 | 0.15 | 56 | 1018.5 |
| 20260507013021 | 12 | 281 | 0.0 | 0.0 | 0.00 | 0.30 | 0.15 | 55 | 1018.4 |
| 20260507012021 | 12 | 293 | 0.0 | 3.2 | 0.00 | 0.30 | 0.15 | 53 | 1018.4 |
| 20260507011021 | 13 | 315 | 1.6 | 8.0 | 0.00 | 0.30 | 0.15 | 52 | 1018.3 |
| 20260507010021 | 13 | 270 | 0.0 | 4.8 | 0.00 | 0.30 | 0.15 | 50 | 1018.4 |
| 20260507005021 | 13 | 338 | 4.8 | 9.7 | 0.00 | 0.30 | 0.15 | 49 | 1018.2 |
| 20260507004021 | 13 | 315 | 4.8 | 9.7 | 0.00 | 0.30 | 0.15 | 49 | 1018.2 |
| 20260507003021 | 13 | 293 | 4.8 | 9.7 | 0.00 | 0.30 | 0.15 | 48 | 1018.2 |
| 20260507002021 | 13 | 293 | 4.8 | 11.3 | 0.00 | 0.30 | 0.15 | 47 | 1018.1 |
| 20260507001021 | 13 | 293 | 4.8 | 8.0 | 0.00 | 0.30 | 0.15 | 45 | 1018.2 |
| 20260507000022 | 14 | 270 | 6.4 | 11.3 | 0.00 | 0.30 | 0.15 | 44 | 1018.3 |
| 20260506235021 | 15 | 315 | 8.0 | 14.5 | 0.00 | 0.30 | 0.15 | 44 | 1018.2 |
| 20260506234021 | 14 | 338 | 6.4 | 14.5 | 0.00 | 0.30 | 0.15 | 43 | 1018.2 |
| 20260506233021 | 14 | 315 | 8.0 | 14.5 | 0.00 | 0.30 | 0.15 | 44 | 1018.2 |
| 20260506232021 | 15 | 338 | 4.8 | 9.7 | 0.00 | 0.30 | 0.15 | 44 | 1018.2 |
| 20260506231021 | 15 | 293 | 9.7 | 19.3 | 0.00 | 0.30 | 0.15 | 44 | 1018.1 |
| 20260506230021 | 15 | 338 | 8.0 | 11.3 | 0.00 | 0.30 | 0.15 | 43 | 1018.3 |
| 20260506225021 | 15 | 293 | 4.8 | 11.3 | 0.00 | 0.30 | 0.15 | 46 | 1018.3 |
| 20260506224021 | 14 | 338 | 8.0 | 12.9 | 0.00 | 0.30 | 0.15 | 46 | 1017.9 |
| 20260506223021 | 14 | 315 | 6.4 | 11.3 | 0.00 | 0.30 | 0.15 | 46 | 1018.0 |
| 20260506222021 | 14 | 270 | 8.0 | 14.5 | 0.00 | 0.30 | 0.15 | 46 | 1018.1 |
| 20260506221021 | 14 | 270 | 9.7 | 16.1 | 0.00 | 0.30 | 0.15 | 46 | 1018.1 |
| 20260506220021 | 14 | 270 | 8.0 | 12.9 | 0.00 | 0.30 | 0.15 | 49 | 1018.1 |
| 20260506215021 | 14 | 270 | 6.4 | 11.3 | 0.00 | 0.30 | 0.15 | 49 | 1018.3 |
| 20260506214021 | 13 | 338 | 8.0 | 14.5 | 0.00 | 0.30 | 0.15 | 50 | 1018.3 |
| 20260506213021 | 14 | 338 | 4.8 | 14.5 | 0.00 | 0.30 | 0.15 | 51 | 1018.4 |
| 20260506212021 | 13 | 338 | 9.7 | 16.1 | 0.00 | 0.30 | 0.15 | 51 | 1018.4 |
| 20260506211021 | 13 | 315 | 8.0 | 17.7 | 0.00 | 0.30 | 0.15 | 49 | 1018.5 |
| 20260506210021 | 15 | 315 | 8.0 | 16.1 | 0.00 | 0.30 | 0.15 | 49 | 1018.7 |
| 20260506205021 | 15 | 270 | 8.0 | 16.1 | 0.00 | 0.30 | 0.15 | 51 | 1018.8 |
| 20260506204021 | 15 | 0 | 4.8 | 14.5 | 0.00 | 0.30 | 0.15 | 49 | 1018.9 |
| 20260506203021 | 14 | 270 | 8.0 | 16.1 | 0.00 | 0.30 | 0.15 | 51 | 1019.0 |
| 20260506202021 | 13 | 248 | 3.2 | 8.0 | 0.00 | 0.30 | 0.15 | 50 | 1019.0 |
| 20260506201021 | 14 | 315 | 6.4 | 12.9 | 0.00 | 0.30 | 0.15 | 49 | 1019.2 |
| 20260506200021 | 15 | 248 | 1.6 | 6.4 | 0.00 | 0.30 | 0.15 | 49 | 1019.4 |
| 20260506195021 | 15 | 315 | 4.8 | 11.3 | 0.00 | 0.30 | 0.15 | 48 | 1019.5 |
| 20260506194021 | 14 | 315 | 9.7 | 19.3 | 0.00 | 0.30 | 0.15 | 47 | 1019.6 |
| 20260506193021 | 14 | 0 | 9.7 | 16.1 | 0.00 | 0.30 | 0.15 | 51 | 1019.6 |
| 20260506192021 | 14 | 23 | 4.8 | 14.5 | 0.00 | 0.30 | 0.15 | 49 | 1019.5 |
| 20260506191021 | 14 | 0 | 6.4 | 16.1 | 0.00 | 0.30 | 0.15 | 49 | 1019.7 |
| 20260506190021 | 13 | 23 | 3.2 | 9.7 | 0.00 | 0.30 | 0.15 | 49 | 1019.8 |
| 20260506185021 | 13 | 0 | 6.4 | 14.5 | 0.00 | 0.30 | 0.15 | 50 | 1019.7 |
| 20260506184021 | 13 | 338 | 12.9 | 22.5 | 0.00 | 0.30 | 0.15 | 47 | 1019.9 |
| 20260506183021 | 13 | 23 | 3.2 | 9.7 | 0.00 | 0.30 | 0.15 | 50 | 1019.8 |
| 20260506182021 | 13 | 338 | 9.7 | 16.1 | 0.00 | 0.33 | 0.15 | 50 | 1019.9 |
| 20260506181021 | 12 | 248 | 6.4 | 12.9 | 0.00 | 0.33 | 0.15 | 54 | 1020.0 |